[[{"header":{"parameterUnit":"m.s-1","parameterCategory":1,"la1":30.2992,"la2":30.254,"lo1":-89.0895,"lo2":-89.0443,"dy":0.0025,"dx":0.0025,"nx":19,"ny":19,"refTime":"2026-03-31T09:00:00:Z","depth":0,"parameterNumber":2,"parameterNumberName":"U-component_of_WINDS"},"data":[0,0,0,-3.1555,-3.1555,-3.1534,-3.1534,-3.1519,-3.1519,0,0,0,0,0,0,0,0,0,0,0,-3.1568,-3.1568,-3.1555,-3.1555,-3.1534,-3.1534,-3.1519,-3.1519,0,0,0,0,0,0,0,0,0,0,0,-3.1568,-3.1568,-3.1568,-3.1555,-3.1534,-3.1534,-3.1519,-3.153,0,0,0,0,0,0,0,0,0,0,-3.1548,-3.1567,-3.1568,-3.1568,-3.1555,-3.1534,-3.1534,-3.1531,-3.1529,-3.1533,0,-3.1538,0,-3.1528,-3.1518,-3.1518,0,0,0,-3.1549,-3.1568,-3.1557,-3.1568,-3.1554,-3.1534,-3.1542,-3.153,-3.1529,-3.1532,-3.1538,-3.1537,-3.1528,-3.1518,-3.1518,-3.1558,-3.1558,0,0,-3.155,-3.1568,-3.1557,-3.1556,-3.156,-3.1542,-3.1541,-3.1529,-3.1537,-3.1538,-3.1536,-3.1528,-3.1518,-3.1518,-3.1557,-3.1558,0,0,0,-3.1557,-3.1569,-3.1557,-3.1557,-3.1553,-3.1542,-3.1541,-3.1537,-3.1532,-3.1536,-3.1528,-3.1518,-3.1518,-3.1557,-3.1557,-3.1595,0,0,0,-3.1558,-3.1573,-3.1558,-3.1569,-3.1553,-3.1545,-3.1549,-3.1533,-3.1531,-3.1528,-3.1518,-3.1518,-3.1556,-3.1557,-3.1593,-3.1609,0,0,0,-3.1567,-3.1574,-3.1573,-3.157,-3.1561,-3.1544,-3.1538,-3.1532,-3.1526,-3.1518,-3.1518,-3.1556,-3.1557,-3.1591,-3.1606,-3.1624,0,0,0,-3.1582,-3.1607,-3.1574,-3.16,-3.1562,-3.1569,-3.1538,-3.1542,-3.1541,-3.1518,-3.1556,-3.1557,-3.159,-3.1604,-3.1622,-3.164,-3.165,0,0,-3.1623,-3.1613,-3.1626,-3.1596,-3.1614,-3.157,-3.1593,-3.1575,-3.1558,-3.1559,-3.1559,-3.1594,-3.1606,-3.1623,-3.1703,-3.1711,0,0,0,-3.1645,-3.1655,-3.1656,-3.1655,-3.1643,-3.1633,-3.161,-3.1603,-3.1603,-3.1562,-3.1605,-3.1612,-3.1622,-3.1629,-3.1636,-3.1643,-3.1562,-3.1562,-3.1562,-3.1728,-3.1706,-3.1727,-3.1703,-3.1703,-3.1679,-3.1677,-3.1664,-3.1642,-3.1653,-3.1651,-3.1703,-3.1713,-3.1718,-3.1725,-3.1662,-3.1662,-3.1662,-3.1662,-3.1785,-3.1795,-3.1766,-3.1776,-3.1753,-3.1761,-3.174,-3.1724,-3.1728,-3.1701,-3.1709,-3.168,-3.1727,-3.1732,-3.1665,-3.1664,-3.1664,-3.1663,-3.1663,-3.1835,-3.1835,-3.1828,-3.1826,-3.1827,-3.1802,-3.1807,-3.1787,-3.1767,-3.1775,-3.1771,-3.177,-3.1765,-3.1775,-3.1775,-3.1775,-3.1775,-3.1775,-3.1776,-3.1888,-3.1879,-3.1885,-3.1876,-3.1873,-3.1867,-3.1845,-3.1842,-3.1833,-3.1817,-3.1817,-3.1793,-3.1737,-3.1722,-3.1778,-3.1778,-3.1777,-3.1777,-3.1777,-3.1951,-3.1934,-3.1944,-3.1942,-3.1929,-3.1931,-3.1906,-3.1901,-3.1895,-3.1899,-3.1874,-3.1837,-3.1824,-3.1818,-3.1805,-3.188,-3.188,-3.188,-3.188,-3.1991,-3.1983,-3.199,-3.1987,-3.1982,-3.1961,-3.1974,-3.1958,-3.1938,-3.1934,-3.1921,-3.1903,-3.1899,-3.1888,-3.1881,-3.1869,-3.1957,-3.1957,-3.1958,-3.2027,-3.2019,-3.2033,-3.2015,-3.2003,-3.1994,-3.2005,-3.2003,-3.1978,-3.196,-3.1929,-3.1926,-3.1897,-3.189,-3.1868,-3.1857,-3.1834,0,0]},{"header":{"parameterUnit":"m.s-1","parameterCategory":1,"la1":30.2992,"la2":30.254,"lo1":-89.0895,"lo2":-89.0443,"dy":0.0025,"dx":0.0025,"nx":19,"ny":19,"refTime":"2026-03-31T09:00:00:Z","depth":0,"parameterNumber":3,"parameterNumberName":"V-component_of_WINDS"},"data":[0,0,0,3.5325,3.5322,3.5177,3.5176,3.5009,3.5008,0,0,0,0,0,0,0,0,0,0,0,3.538,3.538,3.5325,3.5322,3.5177,3.5176,3.5009,3.5008,0,0,0,0,0,0,0,0,0,0,0,3.5381,3.538,3.5379,3.5321,3.5177,3.5176,3.501,3.5112,0,0,0,0,0,0,0,0,0,0,3.5249,3.5313,3.538,3.5379,3.532,3.5177,3.5176,3.5116,3.5105,3.5083,0,3.5068,0,3.5036,3.4998,3.4997,0,0,0,3.5311,3.5323,3.5273,3.5379,3.5319,3.5178,3.5239,3.511,3.5098,3.5069,3.5066,3.5059,3.5033,3.4997,3.4996,3.4909,3.491,0,0,3.5319,3.536,3.5281,3.5265,3.5292,3.5244,3.5235,3.5102,3.5101,3.5065,3.5055,3.503,3.4996,3.4995,3.4909,3.4909,0,0,0,3.5349,3.5366,3.5319,3.5273,3.5246,3.524,3.523,3.5107,3.5088,3.5053,3.5028,3.4995,3.4993,3.4909,3.4909,3.4956,0,0,0,3.5353,3.5384,3.5323,3.5347,3.5249,3.5175,3.5238,3.5097,3.5081,3.5029,3.4995,3.4992,3.4909,3.4909,3.4955,3.4971,0,0,0,3.5385,3.5387,3.5371,3.5349,3.5289,3.5176,3.5149,3.5093,3.5067,3.4997,3.4991,3.4909,3.4909,3.4953,3.4969,3.4962,0,0,0,3.543,3.5412,3.5373,3.5343,3.5291,3.5207,3.515,3.5084,3.503,3.4994,3.4909,3.4909,3.4953,3.4967,3.4961,3.4965,3.4971,0,0,3.543,3.5413,3.5392,3.5353,3.5288,3.5226,3.5166,3.5075,3.5029,3.4951,3.4949,3.4955,3.4968,3.4962,3.4986,3.4991,0,0,0,3.5406,3.5392,3.5366,3.5319,3.5252,3.5196,3.5111,3.5078,3.5011,3.4998,3.4949,3.4956,3.495,3.495,3.4954,3.4948,3.4911,3.4911,3.4911,3.5464,3.541,3.5372,3.5301,3.5256,3.5171,3.5129,3.5069,3.5023,3.5014,3.499,3.5012,3.5014,3.5016,3.501,3.4987,3.4987,3.4987,3.4987,3.546,3.5432,3.5377,3.5321,3.5263,3.5214,3.5132,3.5102,3.5048,3.5024,3.5016,3.4995,3.5023,3.5015,3.499,3.499,3.4989,3.4989,3.4989,3.5492,3.5469,3.5432,3.5361,3.5312,3.5239,3.5191,3.5139,3.5088,3.5081,3.5052,3.5051,3.5045,3.5071,3.5071,3.5071,3.5071,3.5071,3.5071,3.5541,3.5497,3.5465,3.5396,3.5361,3.5307,3.5223,3.5186,3.5131,3.5096,3.5096,3.5053,3.5036,3.5034,3.5072,3.5072,3.5072,3.5072,3.5072,3.5557,3.5546,3.5497,3.5462,3.5377,3.5334,3.5268,3.5198,3.5159,3.5138,3.5097,3.5093,3.5071,3.5067,3.5065,3.5108,3.5108,3.5108,3.5109,3.5585,3.5571,3.551,3.5458,3.5401,3.5339,3.5284,3.522,3.515,3.5123,3.5109,3.5102,3.51,3.5079,3.5075,3.5072,3.5116,3.5116,3.5116,3.5593,3.5571,3.5536,3.5472,3.5403,3.5345,3.5292,3.5234,3.5152,3.5115,3.5101,3.5101,3.5088,3.5086,3.5049,3.5044,3.5037,0,0]}]]